THORAD AGENA D DEB, 4180

Orbit data source: Space-Track

THORAD AGENA D DEB, 4180 is space debris in LEO originally from a launch on Tue, 30 Sep 1969 UTC launched from the Air Force Western Test Range (AFWTR). Debris objects in space refer to the collection of defunct objects orbiting the Earth. Examples of debris include non-operational satellites, rocket bodies, and fragments generated from explosions, collisions, or faulty payload assembly.

Loading next visibility...
Identifier
4180, 1969-082AY
Orbit
LEO
Country
Flag of USUS
Related business
Manufacturer
Unknown
Mission
Spacecraft
Bus & Motor
Unknown
Mass
Unknown
Launch date (UTC)
1969-09-30 (57 years ago)
Launch vehicle
Unknown
Launch site
Air Force Western Test Range (AFWTR)
Object type
Payload
Rocket body
Debris
Shape & HBR
Unknown shape, 0.2 m
Radar Cross Section
Medium (>0.1 m² and <1 m²)

Expand to show TLE details & history
Last TLE update: 2 days ago

TLE from 2 days ago
0 THORAD AGENA D DEB
1  4180U 69082AY  26171.41256706  .00000343  00000-0  13640-3 0  9993
2  4180  69.9796 291.0982 0074849 234.2587 125.1563 14.35162566948255
Epoch: 2026-06-20T09:54Z
TLE epoch observation values (Epoch: 2026-06-20T09:54:05.793Z)
Latitude
-0.00001°
Longitude
-126.0535°
Altitude
807.977 km
Speed
7.433 km/s
True Right ascension
19h 24m 23s
True Declination
0° 00' 00"
Sunlit
Object was in full shadow at epoch
Visualization orbit readout
Latitude
Unknown
Longitude
Unknown
Altitude
Unknown
Speed
Unknown
Apparent Right ascension
Unknown
Apparent Declination
Unknown
Sunlit
N/A
Visualization observer readout
Local Sidereal Time
07:03:51
Azimuth
Unknown
Elevation
Unknown
Doppler factor
Unknown
Orbital elements
Apogee altitude
826.057 km
Perigee altitude
719.013 km
Semi-major axis
7,150.672 km
Eccentricity
0.00748
Inclination
69.9796°
RAAN
291.0982°
Arg. of periapsis
234.2587°
True anomaly
125.85377°
Mean anomaly
125.1563°
Eccentric anomaly
125.50541°
Mean motion
3.58941 °/min
Orbital period
100.3 mins
BSTAR
0.0001364

Documentation

Showing up to 5 results
|